YAHSAT 1B

Last updated on Fri Dec 19 2025 00:02:50 GMT+0000 (Coordinated Universal Time)

1 38245U 12016A 25352.49207424 .00000151 00000+0 00000+0 0 9996 2 38245 0.0627 92.4565 0002531 197.8051 21.8328 1.00272854 43798
UTC large
Height (km)
Speed (km/s)
/
Latitude / Longitude
Inclination (degrees)
Orbital Period (minutes)
Azimuth
Elevation
Range (km)
Doppler Factor

Next 0 passes for location: London (51.5072 / 0.1276)

Sorry there are no passes over London.